Probability
0 0 0 0 0 1 2 2 1 1 3 5 5 3 1 0 0 1 1 3 5 5 5 5 3 1 1 2 2 2 2 2 2 2 3 3 3 2 1 1 1 1 1 2
0 0 0 1 1 1 2 3 2 2 3 4 4 3 1 0 0 1 1 3 4 3 3 3 2 1 0 1 1 1 1 1 1 1 2 3 2 2 1 2 3 3 2 2
0 0 0 1 1 1 1 2 3 3 3 4 3 3 2 1 0 0 1 2 2 1 1 1 1 1 0 0 0 0 0 0 0 1 1 1 1 1 2 3 5 5 4 2
0 0 0 1 1 0 0 1 2 3 3 4 3 3 3 2 1 0 1 1 1 0 0 1 1 1 0 0 0 0 0 0 0 0 0 0 1 3 4 5 6 5 3 2
1 0 0 0 0 0 0 0 1 2 3 3 3 3 3 4 4 2 2 2 1 0 0 1 1 0 0 1 1 0 0 0 0 0 0 1 2 4 5 6 6 4 1 1
2 1 0 0 0 0 0 1 2 3 3 4 3 3 3 4 4 4 4 4 3 2 1 2 1 1 1 2 2 1 0 0 0 0 0 1 3 5 6 7 5 3 1 1
3 2 1 0 0 1 3 4 4 4 5 5 5 4 4 3 3 4 5 4 3 2 2 3 3 2 3 3 3 2 1 0 1 1 0 1 4 6 7 6 5 4 4 3
5 4 3 2 1 3 7 7 5 5 6 6 6 5 4 3 3 3 3 2 2 2 3 3 3 3 3 3 3 3 1 1 2 2 2 2 4 6 6 4 3 4 4 4
7 6 5 4 3 4 6 6 4 4 5 5 5 4 3 3 3 3 3 3 2 3 3 2 2 3 2 2 2 3 3 3 3 4 3 3 3 3 3 2 1 1 2 3
7 6 5 3 2 2 2 2 3 3 3 3 3 3 3 3 3 3 3 3 4 4 3 2 2 2 1 0 1 3 3 4 4 3 3 3 3 2 1 1 0 1 1 1
6 6 4 2 1 1 0 2 3 2 1 2 3 3 3 3 4 3 3 4 5 4 2 1 1 1 1 0 1 2 3 4 3 2 1 2 2 1 0 0 0 1 2 2
6 6 4 2 1 1 1 3 4 2 0 1 2 3 3 4 4 4 3 4 4 3 1 0 0 0 0 0 0 2 3 3 2 0 0 1 1 1 1 0 0 1 1 1
5 3 1 1 0 0 1 3 4 1 0 0 1 2 3 4 5 4 3 3 3 1 0 0 0 0 0 0 0 1 2 2 1 0 0 0 0 0 1 0 0 0 0 0
2 1 0 0 0 0 1 3 3 1 0 0 0 1 2 4 5 4 3 3 2 1 0 0 0 0 0 0 0 0 1 1 0 0 0 0 0 0 0 0 0 0 0 0
0 0 0 0 0 0 1 2 2 2 1 0 0 0 2 4 4 3 2 1 1 0 0 0 0 0 0 0 0 0 0 0 0 0 0 0 0 0 0 0 0 0 0 0
0 0 0 0 0 0 0 1 1 2 2 1 0 0 1 2 2 1 1 0 0 0 0 0 0 0 0 0 0 0 0 0 0 0 0 0 0 0 0 0 0 0 0 0
0 0 0 0 0 0 0 0 0 1 2 1 0 0 1 1 0 0 0 0 1 0 0 0 0 0 0 0 0 0 0 0 0 0 0 0 0 0 0 0 0 0 0 0
0 0 0 0 0 0 0 1 1 1 2 2 1 0 0 0 0 0 0 0 0 0 0 1 0 0 0 0 0 0 0 0 0 0 0 0 0 0 0 0 0 0 0 0
0 0 0 0 0 0 1 2 2 2 3 2 1 0 0 0 1 1 1 0 0 0 0 0 0 0 0 0 0 0 0 0 0 0 0 0 0 0 0 0 0 0 0 0
0 0 0 0 0 0 1 2 3 3 3 3 1 0 0 0 1 2 1 0 0 0 0 0 0 0 0 0 0 0 0 0 0 0 0 0 0 0 0 0 0 0 0 0
0 0 0 1 1 1 1 2 3 4 4 3 1 0 0 0 1 1 1 1 1 0 0 0 0 0 0 0 0 0 0 0 0 0 0 0 0 0 0 0 0 0 0 0
0 0 0 1 2 2 2 2 3 4 4 3 1 1 0 0 0 0 1 1 1 0 0 0 0 0 0 0 0 0 0 0 0 0 0 0 0 0 0 0 0 0 0 0
0 0 0 1 2 3 3 3 4 3 3 3 3 2 1 1 0 0 1 1 0 0 0 0 0 0 0 0 0 0 0 0 0 0 0 0 0 0 0 0 0 0 0 0
0 0 0 0 1 2 2 3 4 3 3 3 3 3 3 2 1 0 1 1 0 0 0 0 0 0 0 0 0 0 0 0 0 0 0 0 0 0 0 0 0 0 0 0
0 0 0 0 0 1 1 1 3 4 3 3 3 3 3 2 1 0 1 1 0 0 0 0 0 0 0 0 0 0 0 0 0 0 0 0 0 0 0 0 0 0 0 0
0 0 0 0 0 0 0 0 1 2 3 3 3 3 2 1 0 0 1 1 0 0 0 0 0 0 0 0 0 0 0 0 0 0 0 0 0 0 0 0 0 0 0 0
0 0 0 0 0 0 0 0 0 1 2 3 3 2 2 1 0 0 0 0 0 0 0 0 0 0 0 0 0 0 0 0 0 0 0 0 0 0 0 0 0 0 0 0
Wind_Speed
10 11 9 8 8 6 6 6 6 5 4 4 3 4 3 2 2 3 3 4 5 5 4 4 4 4 4 4 4 3 3 3 3 2 2 2 2 2 2 2 3 3 3 2
11 11 8 8 7 6 6 6 5 4 2 4 4 4 3 2 3 3 4 5 5 5 4 4 4 4 4 4 3 3 2 2 2 2 2 2 2 2 2 2 2 3 3 2
10 9 9 7 4 3 4 4 4 4 4 4 3 3 3 3 4 4 4 5 5 5 4 4 4 4 4 4 2 2 2 2 1 1 2 2 3 3 2 2 2 2 2 2
9 8 9 1 3 2 3 4 4 3 3 3 3 3 2 4 4 4 4 5 5 4 4 3 3 3 3 4 3 2 3 3 2 1 2 2 3 3 3 2 2 2 1 2
6 8 6 3 1 2 2 2 5 4 5 5 5 2 3 4 3 3 4 4 3 3 3 3 3 4 3 4 3 3 3 3 4 3 2 2 2 3 2 2 2 1 1 1
7 8 6 1 3 3 1 1 4 4 4 5 4 3 2 3 3 3 3 3 2 2 2 2 2 3 4 4 4 4 4 3 3 3 2 1 2 2 2 2 1 2 1 1
9 8 3 3 4 3 2 2 5 4 4 4 3 3 1 1 2 2 3 2 2 2 2 2 2 2 3 4 4 4 4 3 3 2 2 1 1 1 2 2 2 2 2 1
7 7 2 5 4 3 3 3 3 4 4 4 3 2 2 2 2 2 2 2 2 2 2 1 1 2 3 3 3 4 3 3 2 2 3 2 1 2 2 2 2 2 2 2
3 1 3 3 3 3 2 2 2 3 4 3 4 3 2 2 2 2 2 2 2 2 1 1 1 2 2 3 3 3 3 3 2 2 2 2 1 1 2 2 2 2 2 2
3 1 1 1 3 2 2 2 3 2 2 3 3 3 3 2 1 1 1 2 2 1 1 1 1 2 2 2 3 3 2 2 2 1 2 2 2 2 2 2 3 3 3 2
4 3 1 1 2 3 3 3 3 2 3 2 2 3 3 1 1 1 1 1 2 2 2 2 2 2 2 2 2 2 2 2 2 1 1 1 1 1 1 2 1 1 3 3
3 2 2 3 3 3 3 4 4 4 3 2 2 3 3 2 1 1 0 1 2 2 2 2 2 2 2 2 2 3 3 3 3 2 1 1 1 1 1 1 1 1 1 2
4 5 4 3 3 3 3 4 4 4 3 2 2 2 2 2 1 1 1 2 2 3 3 3 3 3 3 3 2 3 3 3 4 3 2 1 2 2 1 2 3 3 4 4
4 4 5 4 3 4 4 4 4 4 3 3 2 2 2 2 2 2 2 2 3 3 3 3 3 3 3 2 2 3 4 3 4 3 3 3 3 2 2 2 1 2 4 6
4 3 4 3 3 4 4 4 4 4 3 3 3 2 2 2 2 2 2 3 2 3 4 3 3 3 3 3 3 4 4 3 3 4 4 4 3 2 2 2 1 1 1 3
4 4 4 4 4 5 4 4 5 4 4 4 3 3 2 2 2 2 3 3 3 4 4 4 3 3 3 3 3 3 3 4 5 5 5 4 4 3 2 2 2 0 1 1
4 4 4 4 5 5 5 5 5 4 5 4 3 3 3 3 3 2 3 3 3 3 3 3 4 4 4 4 4 4 4 4 5 5 4 4 3 3 3 2 1 0 0 1
3 4 4 4 5 5 6 5 5 4 4 3 3 3 3 3 3 2 3 3 3 3 3 3 3 4 5 4 5 5 4 4 4 4 4 4 4 3 3 2 1 1 1 1
3 3 4 5 5 5 6 5 5 4 3 3 3 3 3 3 3 3 3 4 4 4 2 2 3 5 5 4 5 4 5 5 4 3 3 4 4 3 2 2 2 2 1 1
3 3 4 5 5 4 4 5 4 3 2 2 2 2 3 3 3 3 3 4 4 3 2 2 3 4 5 3 4 6 5 5 4 3 3 4 4 3 2 1 1 1 0 1
5 4 4 4 4 5 4 4 4 3 3 3 3 3 3 4 4 4 4 5 4 3 3 3 4 4 4 4 5 6 6 5 5 4 4 4 4 3 2 2 1 1 0 1
5 6 6 5 5 5 4 4 5 5 4 4 4 4 4 4 5 5 5 5 4 3 4 4 4 3 4 5 5 7 7 6 5 4 4 4 3 3 2 2 1 1 1 1
5 6 6 6 6 6 5 6 6 5 5 5 5 5 5 5 5 5 5 4 4 3 4 4 3 3 5 6 6 6 7 6 5 4 4 4 4 3 2 2 1 1 1 1
5 6 7 7 6 6 6 7 6 5 6 6 5 5 5 5 5 6 5 4 4 4 5 4 4 5 6 6 7 6 6 5 5 5 4 5 4 3 2 2 2 2 2 2
6 6 6 7 6 5 5 7 7 7 7 6 6 5 5 5 6 5 4 4 4 5 5 5 6 7 6 6 6 5 5 4 4 4 4 4 4 3 2 1 1 2 2 2
5 5 5 5 6 6 6 6 6 5 5 5 4 4 4 4 5 4 4 4 6 6 6 4 4 5 5 6 6 5 5 4 4 5 4 4 3 3 2 1 2 2 2 2
6 5 5 5 6 6 6 6 6 6 6 5 5 5 5 5 4 5 5 4 4 5 5 4 4 4 5 5 5 4 4 4 3 3 3 3 2 2 2 1 1 1 2 2
Wind_Direction
288 294 294 298 303 306 308 315 314 326 337 26 86 75 69 40 33 32 16 19 27 27 25 21 14 358 352 348 350 353 354 3 11 10 343 342 339 320 324 330 333 334 338 353
288 286 285 287 297 306 313 323 325 321 349 43 68 74 57 32 24 24 11 17 21 25 20 18 9 354 349 344 350 356 360 6 18 14 357 340 327 334 356 357 343 341 343 357
281 295 292 281 301 309 321 350 350 350 16 47 49 35 28 33 20 8 14 18 22 20 16 9 358 351 339 335 340 350 2 358 15 13 350 352 347 2 6 1 345 335 343 356
276 281 274 302 359 5 357 16 15 10 13 40 41 32 61 61 34 4 13 20 23 14 5 2 355 354 345 342 354 1 358 352 4 9 3 5 2 2 1 350 340 339 338 342
274 275 268 240 305 326 338 5 19 7 12 14 21 41 85 60 38 9 19 29 27 12 1 3 358 350 340 336 341 348 354 4 2 347 3 11 352 348 346 348 353 325 308 324
267 277 277 359 38 353 307 162 22 6 11 11 10 333 18 42 24 16 32 29 20 351 352 354 358 343 332 340 347 348 353 354 356 350 346 338 327 325 328 331 308 304 323 335
257 263 268 12 6 324 284 31 14 13 7 4 8 343 4 40 37 39 41 28 14 347 356 6 351 334 334 337 340 339 345 346 344 354 340 303 305 299 312 314 310 312 315 310
258 261 271 18 23 24 39 42 18 14 5 357 2 11 52 37 39 50 33 7 359 358 360 6 336 332 331 336 333 333 338 345 346 353 337 348 320 311 318 306 301 288 293 304
310 317 90 59 61 67 25 354 7 359 357 353 346 353 7 25 26 30 20 2 347 351 346 351 336 329 329 329 328 330 336 345 339 339 355 337 323 340 336 329 326 335 341 350
274 202 147 66 67 45 357 356 352 353 340 339 340 341 348 360 30 19 14 333 321 325 323 319 314 319 321 321 324 319 321 321 315 322 357 356 349 355 355 350 353 354 353 353
273 277 274 67 24 4 357 348 331 315 318 328 333 323 331 356 2 336 325 318 317 311 295 290 296 296 304 310 311 309 298 288 292 292 290 3 349 340 352 18 7 342 347 350
295 328 318 328 352 343 328 316 313 305 302 325 335 325 325 335 338 304 302 302 297 295 290 290 292 297 301 299 309 311 300 292 284 261 221 216 229 224 26 226 272 300 295 294
318 321 325 325 319 318 312 312 310 305 305 314 312 308 310 310 308 306 285 283 284 287 287 281 283 287 291 292 306 308 309 307 298 287 268 250 240 223 225 242 254 270 281 277
321 323 310 310 317 320 313 307 305 297 298 298 291 288 293 286 279 279 285 282 284 289 286 273 276 285 294 292 291 297 296 295 293 292 293 278 270 250 232 241 244 220 247 250
303 305 304 306 296 298 303 306 301 295 291 291 287 284 287 281 275 269 282 290 290 283 291 291 283 282 283 284 284 286 287 292 300 297 291 289 287 273 255 254 251 208 213 220
301 303 307 297 290 289 291 297 296 295 290 283 288 290 281 280 285 285 283 278 273 278 288 294 292 289 280 275 277 279 276 283 288 287 286 291 293 290 281 276 280 243 261 272
290 288 295 296 295 294 291 288 290 292 295 291 292 299 292 280 276 268 276 280 267 267 276 284 291 297 294 276 268 268 266 262 261 278 288 291 291 297 295 293 306 306 259 334
291 291 296 296 298 301 299 297 297 298 292 289 292 302 297 288 279 271 273 284 280 270 268 276 305 305 294 289 283 277 272 272 268 272 273 278 288 291 295 296 299 283 247 185
293 292 295 295 300 299 292 292 288 289 294 291 282 288 292 287 283 278 270 267 270 268 269 280 286 284 287 287 290 277 270 268 269 266 273 278 278 288 292 294 284 264 254 156
317 307 299 300 307 306 299 299 308 300 291 288 279 269 271 283 290 291 282 269 266 270 266 287 279 277 278 285 294 285 278 274 274 277 277 275 277 287 295 299 288 279 256 122
341 327 313 307 307 309 314 316 311 301 297 289 280 278 279 288 289 287 275 272 267 270 270 253 256 267 276 294 281 278 276 274 271 269 272 278 282 285 293 295 286 294 291 117
346 337 329 321 311 309 311 306 293 286 287 285 279 275 276 281 283 278 267 268 266 256 259 254 252 267 290 290 275 271 272 270 269 263 267 274 273 271 266 265 268 258 157 124
331 329 324 318 311 307 303 294 284 279 277 275 272 272 273 276 275 271 265 259 262 260 266 269 266 255 266 273 271 267 270 269 267 263 259 263 262 260 250 239 233 211 139 152
324 318 318 313 308 301 296 296 295 283 275 269 262 260 266 269 266 259 255 241 224 222 256 256 235 240 250 259 263 262 264 266 263 257 248 253 258 257 239 214 200 173 160 166
317 313 309 308 298 292 290 290 286 272 267 267 264 260 262 262 266 266 258 241 220 225 245 236 226 229 244 261 265 268 271 269 268 266 256 256 260 260 246 214 173 160 162 162
300 298 300 300 301 296 287 280 280 282 278 276 277 275 273 272 269 266 258 242 232 234 245 238 236 235 245 257 266 268 271 265 253 257 256 248 246 251 244 216 189 179 173 161
276 273 274 279 285 289 291 292 291 291 293 296 290 285 280 281 279 277 272 257 243 239 245 242 240 244 253 259 266 271 274 276 273 266 255 246 243 234 224 206 179 155 160 144